This is the latest recevied weather packets stored in our database for station/object K8WEH. If no packets are shown the sender has not sent any weather packets the latest 10 day(s).
| Time | Temp. | Humidity | Pressure | Rain* | Wind** | Luminosity | Snow |
|---|---|---|---|---|---|---|---|
| 1777860334 | 10.56° C | 69% | 1017.1 hPa | 0 mm | - | - | - |
| 1777860033 | 10.56° C | 66% | 1017 hPa | 0 mm | - | - | - |
| 1777859733 | 10.56° C | 66% | 1016.9 hPa | 0 mm | - | - | - |
| 1777859433 | 10.56° C | 64% | 1016.9 hPa | 0 mm | - | - | - |
| 1777859133 | 10.56° C | 64% | 1017 hPa | 0 mm | - | - | - |
| 1777858833 | 10.56° C | 63% | 1017 hPa | 0 mm | - | - | - |
| 1777858532 | 11.11° C | 62% | 1016.9 hPa | 0 mm | - | - | - |
| 1777858236 | 11.11° C | 62% | 1016.8 hPa | 0 mm | - | - | - |
| 1777857993 | 11.11° C | 63% | 1016.7 hPa | 0 mm | - | - | - |
| 1777857631 | 11.11° C | 63% | 1016.5 hPa | 0 mm | - | - | - |
| 1777857333 | 11.11° C | 63% | 1016.5 hPa | 0 mm | - | - | - |
| 1777857031 | 11.11° C | 60% | 1016.4 hPa | 0 mm | - | - | - |
| 1777856731 | 11.67° C | 58% | 1016.4 hPa | 0 mm | - | - | - |
| 1777856430 | 11.67° C | 60% | 1016.2 hPa | 0 mm | - | - | - |
| 1777856130 | 11.67° C | 60% | 1016.1 hPa | 0 mm | - | - | - |
| 1777855830 | 12.22° C | 58% | 1016.1 hPa | 0 mm | - | - | - |
| 1777855531 | 12.22° C | 58% | 1016 hPa | 0 mm | - | - | - |
| 1777855229 | 12.22° C | 59% | 1015.9 hPa | 0 mm | - | - | - |
| 1777854930 | 12.22° C | 56% | 1015.9 hPa | 0 mm | - | - | - |
| 1777854638 | 12.78° C | 56% | 1016 hPa | 0 mm | - | - | - |
| 1777854328 | 12.78° C | 52% | 1016.1 hPa | 0 mm | - | - | - |
| 1777854027 | 12.78° C | 57% | 1016.2 hPa | 0 mm | - | - | - |
| 1777853728 | 13.33° C | 51% | 1016.3 hPa | 0 mm | - | - | - |
| 1777853426 | 13.33° C | 52% | 1016.3 hPa | 0 mm | - | - | - |
| 1777853126 | 13.33° C | 49% | 1016.5 hPa | 0 mm | - | - | - |
* Rain latest hour (hover to see other rain measurements)
** Current wind speed in m/s (hover to see current wind gust speed)